Location: Little Ridge
(33.0629°N, 96.4547°W)
Time: 08:01:42
(UTC+00:00)

CZ-2C R/B - Visible Passes

Search period start: 25 June 2022 00:00
Search period end: 05 July 2022 00:00
Orbit: 785 x 869 km, 98.2° (Epoch: 24 June)

Date Brightness Start Highest point End Pass type
(mag) Time Alt. Az. Time Alt. Az. Time Alt. Az.
26 Jun 3.8 10:33:12 10° SE 10:38:25 49° ENE 10:43:45 10° N visible
27 Jun 4.6 10:15:03 10° SE 10:19:52 33° ENE 10:24:47 10° N visible
28 Jun 5.3 09:57:14 10° ESE 10:01:23 22° ENE 10:05:35 10° NNE visible
29 Jun 5.6 09:39:55 10° E 09:42:56 15° ENE 09:45:59 10° NNE visible
01 Jul 3.5 10:39:55 10° SSE 10:45:17 59° ENE 10:50:47 10° N visible
02 Jul 4.3 10:21:39 10° SE 10:26:44 39° ENE 10:31:53 10° N visible
03 Jul 5.0 10:03:40 10° SE 10:08:12 27° ENE 10:12:48 10° NNE visible
04 Jul 5.5 09:46:06 10° ESE 09:49:45 18° ENE 09:53:25 10° NNE visible
